Probability
3 0 3 6 6 6 6 3 3 0 0 0 0 0 0 3 3 3 0 0 0 3 3 3 0 0 0 3 6 6 13 10 3 0 0 0 0 0 0 0 0 0 0
3 6 0 0 0 3 6 3 0 0 0 0 0 0 0 0 0 0 0 0 0 0 3 3 3 3 3 3 3 6 6 6 3 3 3 0 0 0 0 0 0 0 0
0 3 0 0 3 3 3 0 0 0 0 0 0 0 0 0 0 0 0 0 0 0 0 3 3 0 3 3 3 6 6 6 0 0 3 0 0 0 0 0 0 0 0
3 0 0 0 3 3 0 0 0 0 0 0 0 0 0 0 0 0 0 0 0 0 0 0 0 0 0 0 0 0 3 6 0 0 0 0 0 0 0 0 0 0 0
0 0 0 0 0 0 0 0 0 0 0 0 0 0 0 0 0 0 0 0 0 0 0 0 0 0 0 0 0 3 3 6 6 0 0 0 0 0 0 0 0 0 0
0 0 0 0 0 0 0 0 0 0 0 0 0 0 0 0 0 0 0 0 0 0 0 0 0 0 0 0 0 3 6 3 3 6 3 0 0 0 0 0 0 0 0
0 0 0 0 0 0 0 0 0 0 0 0 0 0 0 0 0 0 0 0 0 0 0 0 0 0 0 0 0 0 3 6 3 3 3 0 0 0 0 0 0 0 0
0 0 0 0 0 0 0 0 0 0 0 0 0 0 0 0 0 0 0 0 0 0 0 0 0 0 0 0 0 0 0 3 6 3 3 3 0 0 0 0 0 0 0
0 0 0 0 0 0 0 0 0 0 0 0 0 0 0 0 0 0 0 0 0 0 0 0 0 0 0 0 0 0 0 0 0 0 3 3 3 0 0 0 0 0 0
0 0 0 0 0 0 0 0 0 0 0 0 0 0 0 0 0 0 0 0 0 0 0 0 0 0 0 0 0 0 0 0 0 0 0 0 0 0 0 0 0 0 0
0 0 0 0 0 0 0 0 0 0 0 0 0 0 0 0 0 0 0 0 0 0 0 0 0 0 0 0 0 0 0 0 0 0 0 0 0 0 0 0 3 3 0
0 0 0 0 0 0 0 0 0 0 0 0 0 0 0 0 0 0 0 0 0 0 0 0 0 0 0 0 0 0 0 0 0 0 0 0 0 0 0 0 0 0 0
0 0 0 0 0 0 0 0 0 0 0 0 0 0 0 0 0 0 0 0 0 0 0 0 0 0 0 0 0 0 0 0 0 0 0 0 0 0 0 0 0 0 0
0 0 0 0 0 0 0 0 0 0 0 0 0 0 0 0 0 0 0 0 0 0 0 0 0 0 0 0 0 0 0 0 0 0 0 0 0 0 0 0 0 0 0
0 0 0 0 0 0 0 0 0 0 0 0 0 0 0 0 0 0 0 0 0 0 0 0 0 0 0 0 0 0 0 0 0 0 0 0 0 0 0 0 0 0 0
0 0 0 0 0 0 0 0 0 0 0 0 0 0 0 0 0 0 0 0 0 0 0 0 0 0 0 0 0 0 0 0 0 0 0 0 0 0 0 0 0 0 0
0 0 0 0 0 0 0 0 0 0 0 0 0 0 0 0 0 0 0 0 0 0 0 0 0 0 0 0 0 0 0 0 0 0 0 0 0 0 0 0 0 0 0
0 0 0 0 0 0 0 0 0 0 0 0 0 0 0 0 0 0 0 0 0 0 0 0 0 0 0 0 0 0 0 0 0 0 0 0 0 0 0 0 0 0 0
0 0 0 0 0 0 0 0 0 0 0 0 0 0 0 0 0 0 0 0 0 0 0 0 0 0 0 0 0 0 0 0 0 0 0 0 0 0 0 0 0 0 0
0 0 0 0 0 0 0 0 0 0 0 0 0 0 0 0 0 0 0 0 0 0 0 0 0 0 0 0 0 0 0 0 0 0 0 0 0 0 0 0 0 0 0
0 0 0 0 0 0 0 0 0 0 0 0 0 0 0 0 0 0 0 0 0 0 0 0 0 0 0 0 0 0 0 0 0 0 0 0 0 0 0 0 0 0 0
0 0 0 0 0 0 0 0 0 0 0 0 0 0 0 0 0 0 0 0 0 0 0 0 0 0 0 0 0 0 0 0 0 0 0 0 0 0 0 0 0 0 0
0 0 0 0 0 0 0 0 0 0 0 0 0 0 0 0 0 0 0 0 0 0 0 0 0 0 0 0 0 0 0 0 0 0 0 0 0 0 0 0 0 0 0
0 0 0 0 0 0 0 0 0 0 0 0 0 0 0 0 0 0 0 0 0 0 0 0 0 0 0 0 0 0 0 0 0 0 0 0 0 0 0 0 0 0 0
0 0 0 0 0 0 0 0 0 0 0 0 0 0 0 0 0 0 0 0 0 0 0 0 0 0 0 0 0 0 0 0 0 0 0 0 0 0 0 0 0 0 0
0 0 0 0 0 0 0 0 0 0 0 0 0 0 0 0 0 0 0 0 0 0 0 0 0 0 0 0 0 0 0 0 0 0 0 0 0 0 0 0 0 0 0
Height
5797 5798 5799 5801 5802 5803 5805 5806 5808 5809 5811 5812 5813 5815 5816 5817 5818 5819 5821 5822 5823 5825 5826 5827 5828 5829 5830 5831 5832 5833 5834 5835 5835 5836 5837 5837 5837 5838 5838 5838 5838 5838 5838
5789 5790 5792 5793 5794 5796 5797 5799 5800 5802 5803 5805 5806 5807 5809 5810 5811 5813 5814 5816 5817 5818 5819 5821 5822 5823 5824 5826 5827 5828 5828 5829 5830 5831 5831 5831 5831 5832 5832 5832 5832 5832 5832
5781 5783 5784 5785 5787 5788 5789 5791 5792 5794 5796 5797 5799 5800 5802 5803 5804 5806 5807 5809 5810 5811 5813 5814 5815 5817 5818 5819 5820 5821 5822 5823 5824 5824 5825 5825 5825 5825 5825 5826 5826 5826 5826
5773 5774 5776 5777 5779 5780 5781 5783 5784 5786 5788 5790 5792 5793 5794 5796 5797 5798 5800 5802 5803 5804 5806 5807 5808 5810 5811 5812 5813 5814 5815 5816 5817 5817 5818 5818 5818 5818 5819 5819 5819 5819 5819
5765 5766 5767 5769 5770 5772 5773 5775 5776 5778 5780 5782 5784 5785 5787 5788 5789 5791 5792 5794 5795 5797 5798 5800 5801 5802 5804 5805 5806 5807 5808 5808 5809 5810 5810 5811 5811 5811 5811 5811 5812 5812 5812
5756 5757 5758 5760 5761 5763 5765 5766 5768 5769 5771 5773 5776 5777 5779 5780 5781 5783 5784 5785 5787 5788 5790 5791 5793 5794 5796 5797 5798 5799 5800 5800 5801 5801 5802 5802 5802 5803 5803 5803 5803 5803 5803
5747 5749 5750 5751 5753 5754 5756 5757 5759 5761 5762 5764 5766 5768 5770 5771 5772 5774 5775 5777 5778 5779 5781 5782 5784 5785 5787 5788 5789 5790 5790 5791 5792 5792 5793 5793 5793 5794 5794 5794 5794 5795 5795
5739 5740 5741 5743 5744 5745 5747 5749 5750 5751 5753 5755 5757 5759 5761 5763 5764 5765 5766 5768 5769 5770 5772 5773 5775 5776 5778 5779 5780 5780 5781 5782 5782 5783 5783 5784 5785 5785 5785 5785 5786 5786 5786
5730 5731 5732 5733 5735 5736 5738 5739 5741 5742 5744 5746 5748 5750 5752 5754 5756 5757 5758 5759 5760 5761 5763 5764 5766 5767 5768 5769 5771 5771 5772 5772 5773 5773 5774 5774 5775 5775 5776 5776 5776 5776 5776
5721 5722 5724 5725 5726 5727 5729 5730 5732 5733 5735 5737 5739 5741 5743 5745 5747 5748 5749 5750 5751 5752 5753 5755 5756 5757 5758 5759 5761 5761 5762 5762 5762 5763 5764 5764 5764 5764 5765 5765 5765 5766 5766
5712 5713 5714 5716 5717 5718 5720 5721 5723 5724 5726 5727 5729 5731 5733 5734 5736 5738 5740 5741 5742 5743 5744 5745 5746 5747 5748 5749 5750 5751 5751 5751 5752 5752 5753 5753 5753 5753 5753 5754 5754 5754 5755
5703 5704 5705 5706 5708 5709 5711 5712 5714 5715 5716 5718 5720 5721 5723 5725 5726 5727 5729 5730 5732 5733 5734 5735 5735 5736 5737 5738 5739 5740 5740 5741 5741 5741 5742 5742 5742 5742 5742 5742 5743 5743 5743
5694 5695 5696 5698 5699 5700 5702 5703 5704 5706 5707 5709 5710 5711 5713 5714 5716 5717 5718 5720 5721 5723 5723 5724 5725 5726 5726 5727 5728 5728 5729 5729 5729 5730 5730 5730 5730 5731 5731 5731 5731 5731 5731
5684 5686 5687 5688 5690 5691 5692 5693 5695 5696 5698 5699 5700 5701 5702 5703 5705 5706 5708 5709 5710 5712 5713 5713 5714 5714 5715 5716 5716 5717 5717 5717 5717 5717 5717 5718 5718 5718 5719 5719 5718 5718 5719
5674 5676 5677 5679 5680 5682 5683 5684 5685 5686 5688 5688 5690 5690 5691 5692 5694 5695 5696 5698 5699 5701 5702 5702 5703 5703 5703 5704 5704 5704 5704 5705 5704 5704 5704 5704 5705 5705 5705 5705 5705 5705 5706
5664 5666 5667 5669 5671 5672 5673 5674 5675 5676 5677 5678 5679 5680 5681 5682 5683 5684 5685 5686 5687 5688 5689 5691 5691 5691 5691 5691 5691 5691 5691 5691 5691 5690 5690 5691 5691 5691 5691 5691 5691 5692 5692
5654 5656 5657 5659 5661 5662 5663 5664 5665 5666 5667 5668 5668 5669 5670 5671 5672 5673 5673 5674 5675 5675 5676 5678 5678 5678 5678 5678 5678 5677 5677 5677 5677 5677 5676 5676 5676 5676 5676 5676 5677 5678 5678
5644 5646 5647 5649 5650 5652 5653 5654 5655 5656 5657 5657 5658 5659 5659 5660 5660 5661 5662 5662 5663 5663 5663 5664 5665 5665 5665 5665 5664 5664 5663 5663 5663 5663 5662 5662 5662 5662 5662 5662 5662 5663 5664
5633 5635 5637 5638 5640 5641 5642 5644 5645 5645 5646 5647 5647 5648 5648 5648 5649 5649 5650 5650 5650 5650 5650 5650 5651 5652 5651 5651 5651 5650 5650 5649 5649 5649 5648 5648 5648 5648 5647 5647 5648 5649 5650
5622 5625 5626 5628 5629 5631 5632 5633 5634 5635 5635 5636 5636 5637 5637 5637 5637 5637 5637 5637 5637 5637 5637 5637 5638 5638 5638 5638 5637 5637 5637 5636 5636 5635 5635 5635 5634 5634 5634 5634 5634 5635 5635
5611 5613 5615 5617 5619 5620 5621 5622 5623 5624 5624 5625 5625 5626 5626 5626 5625 5625 5625 5625 5625 5625 5624 5624 5625 5625 5625 5625 5624 5624 5623 5622 5622 5622 5622 5622 5622 5621 5621 5620 5620 5620 5620
5600 5602 5604 5606 5607 5609 5610 5611 5612 5613 5613 5614 5614 5614 5614 5613 5613 5613 5612 5612 5612 5612 5612 5612 5612 5612 5612 5612 5611 5611 5610 5610 5610 5610 5608 5608 5608 5608 5608 5608 5607 5606 5606
5589 5591 5593 5594 5596 5597 5598 5599 5600 5601 5602 5602 5602 5602 5602 5602 5601 5600 5600 5599 5599 5599 5599 5599 5599 5599 5599 5599 5599 5598 5597 5596 5596 5596 5595 5595 5595 5595 5595 5594 5593 5593 5593
5578 5580 5581 5583 5584 5585 5586 5587 5588 5589 5589 5590 5590 5590 5590 5589 5589 5588 5588 5587 5587 5587 5587 5587 5587 5587 5586 5586 5585 5585 5583 5583 5583 5582 5581 5582 5581 5581 5581 5581 5580 5580 5579
5567 5569 5570 5571 5573 5574 5574 5575 5576 5576 5577 5577 5577 5577 5577 5577 5577 5576 5576 5576 5576 5575 5575 5574 5574 5574 5573 5573 5572 5572 5571 5570 5570 5570 5569 5569 5569 5568 5568 5568 5567 5566 5565
5556 5558 5559 5560 5561 5562 5562 5563 5563 5564 5565 5565 5565 5565 5565 5565 5564 5563 5564 5564 5564 5564 5563 5563 5562 5562 5561 5560 5559 5559 5558 5558 5557 5557 5556 5556 5555 5554 5555 5554 5553 5552 5551
Wind_Speed
32 32 31 31 31 31 32 32 32 31 31 31 32 31 31 31 31 31 30 30 30 30 29 29 28 28 28 27 27 26 26 26 27 27 26 26 26 26 25 25 25 24 24
33 33 33 33 33 33 33 33 33 33 32 33 33 32 32 33 32 31 31 31 31 31 31 31 30 30 30 30 29 29 29 28 28 29 29 28 28 28 28 28 27 27 27
34 34 34 34 34 34 35 34 34 34 34 34 33 33 33 34 33 33 32 32 32 33 33 32 32 32 32 32 32 32 31 31 31 31 31 31 31 30 29 30 30 30 30
35 35 35 35 35 35 36 36 35 36 36 35 34 33 34 34 35 34 34 34 35 35 34 34 33 33 34 34 34 34 33 33 33 33 33 33 33 33 33 32 32 32 32
36 36 36 36 36 36 36 36 36 36 37 37 36 35 35 35 35 35 36 36 37 36 35 36 36 35 35 36 36 35 35 35 35 35 36 36 36 36 36 35 35 35 35
37 36 37 36 37 37 36 36 36 37 37 37 37 37 37 36 37 37 37 38 38 38 38 37 37 38 37 38 38 38 38 38 38 38 38 38 38 38 38 38 37 37 37
37 36 36 36 36 37 37 36 37 36 37 37 38 38 38 37 37 37 38 38 39 39 39 39 39 39 39 39 39 40 40 40 40 40 40 40 39 39 39 38 38 38 37
37 36 36 37 37 38 38 37 37 37 38 38 39 38 39 38 38 38 39 39 40 40 40 40 39 41 41 40 40 41 41 41 41 41 41 41 41 40 40 40 39 39 39
37 37 37 36 37 37 37 37 37 38 38 39 40 40 40 39 40 40 40 41 41 42 42 42 42 41 42 42 41 41 42 42 42 42 42 42 42 43 43 43 43 42 42
37 38 38 37 37 36 37 36 37 38 38 39 40 40 40 41 41 41 41 42 42 43 44 44 44 43 43 44 43 43 44 44 44 44 44 44 44 45 45 45 45 44 44
37 37 38 38 38 38 38 38 38 38 38 39 39 40 40 41 42 42 42 42 43 43 44 44 45 44 44 45 45 44 45 45 45 46 46 46 46 46 45 45 45 45 45
38 37 38 37 37 37 38 38 39 38 39 40 40 41 41 42 42 42 43 43 43 43 43 44 44 45 45 45 46 46 47 46 46 47 47 47 46 46 46 46 46 47 47
39 38 38 37 37 37 37 38 38 39 40 40 41 42 42 43 43 43 43 43 43 43 44 45 45 46 46 46 46 46 47 47 48 48 48 48 47 47 47 47 47 48 48
40 39 39 38 38 38 38 39 38 39 40 41 41 42 43 44 44 44 44 45 45 45 45 45 45 46 47 47 47 48 48 48 49 49 49 49 49 50 49 49 49 49 50
41 40 39 39 39 39 39 39 40 39 40 41 42 42 43 43 44 44 45 46 47 47 46 46 46 46 46 46 47 48 48 48 49 50 51 51 51 51 51 50 50 50 50
42 41 40 40 40 40 39 38 39 39 41 41 41 41 41 42 43 44 45 45 46 46 47 47 47 46 46 46 47 49 49 49 50 50 51 51 52 52 51 51 51 50 50
42 41 41 41 40 40 39 39 39 40 40 40 41 41 41 42 43 44 45 46 46 47 47 46 46 47 47 48 48 49 50 50 51 51 51 52 51 51 51 51 51 51 51
42 41 41 41 41 40 39 39 40 40 40 40 40 40 41 42 43 44 45 46 47 47 47 47 46 47 48 48 48 49 49 50 51 51 51 51 51 51 51 51 51 51 51
42 41 40 40 40 40 40 40 40 39 39 40 40 41 41 42 43 44 45 45 46 47 47 47 46 47 48 48 48 49 49 50 50 50 50 50 50 50 50 51 51 52 52
42 41 40 40 40 40 40 40 40 40 39 40 40 40 41 42 43 43 45 45 45 46 47 47 48 48 48 48 48 48 49 49 50 49 49 49 49 49 49 50 51 52 52
41 41 40 40 40 40 40 40 40 40 40 40 40 41 41 42 42 43 44 45 45 46 46 46 47 48 48 48 47 47 48 48 48 48 49 49 49 49 49 49 50 51 51
41 40 40 40 39 39 40 40 41 41 41 40 40 41 41 42 42 43 43 44 45 45 45 46 46 46 46 46 47 48 48 48 48 48 49 49 49 49 49 49 49 49 50
40 40 40 40 40 40 40 40 40 41 42 42 42 42 42 42 42 42 43 44 43 43 44 45 45 46 46 47 47 47 48 49 49 49 49 48 49 49 49 49 49 50 50
39 39 40 40 40 40 40 40 41 42 42 42 43 43 42 42 42 42 42 42 42 42 43 43 44 45 45 46 46 46 47 48 48 47 48 47 47 48 48 48 48 49 51
38 39 39 39 39 40 40 41 41 42 42 42 42 42 42 42 41 41 41 41 41 42 43 44 43 43 44 45 45 45 45 45 45 46 47 48 47 48 49 49 49 49 50
38 38 38 39 39 40 40 40 41 42 41 41 42 41 41 41 41 41 41 41 42 42 42 42 42 43 44 44 44 44 44 44 44 45 46 47 48 48 48 48 48 49 49
Wind_Direction
251 251 252 253 253 253 252 253 253 253 252 252 251 251 251 250 249 249 250 250 249 249 250 250 250 250 249 250 251 252 253 255 257 259 259 260 261 262 263 265 266 267 268
253 252 253 254 254 254 254 253 252 252 252 252 252 252 251 251 250 250 250 250 250 249 250 251 250 251 251 251 252 253 255 257 258 259 261 262 262 262 262 263 265 265 267
253 253 254 255 254 253 254 254 253 252 252 251 251 252 251 252 251 250 250 250 251 249 250 251 251 252 253 254 254 255 257 258 259 259 261 262 262 262 263 265 266 266 267
254 254 254 255 254 254 254 254 254 253 251 250 250 251 251 252 252 250 250 250 251 249 249 251 252 253 253 255 255 257 258 259 260 260 260 261 262 263 264 265 265 266 266
255 255 255 257 254 255 255 254 253 251 250 250 249 249 250 251 252 252 251 251 250 249 250 251 252 254 255 256 257 258 259 260 260 260 261 262 263 264 265 265 265 266 266
254 255 255 256 255 255 255 254 253 252 250 250 249 249 250 251 252 252 252 252 251 250 251 251 252 254 255 256 257 258 260 260 261 261 261 262 263 264 264 265 266 266 266
254 255 256 257 257 256 254 255 254 253 251 249 248 249 251 252 252 251 251 251 251 251 252 253 254 255 256 257 257 258 260 260 261 262 262 262 263 264 264 265 266 266 266
254 254 255 256 257 257 255 254 254 253 251 248 248 251 252 253 252 251 251 251 252 252 253 254 256 257 258 259 258 259 260 261 261 262 262 262 263 264 264 264 266 267 266
254 254 255 256 256 256 256 255 255 255 253 251 250 252 253 252 252 252 252 252 253 254 254 256 257 259 259 259 259 260 260 260 260 261 262 263 262 264 265 266 267 267 267
254 255 255 257 257 256 255 255 255 256 255 253 253 253 254 253 253 254 254 254 254 254 255 256 257 258 259 259 259 261 261 262 261 261 262 263 264 265 265 266 267 267 267
254 255 256 256 256 256 255 256 257 257 256 255 254 255 255 254 254 255 254 254 255 256 257 258 259 259 259 260 260 261 262 263 262 262 263 263 264 265 265 266 266 267 267
254 255 255 256 257 256 257 258 257 256 257 257 256 256 256 256 255 255 255 255 256 256 257 258 259 259 260 260 260 261 262 261 261 262 262 263 264 265 266 266 267 267 267
255 256 256 257 257 257 257 257 257 256 257 257 257 258 258 258 257 256 256 257 256 257 258 258 258 260 261 261 261 262 262 262 262 262 263 263 263 264 265 266 267 267 268
254 256 257 257 257 257 258 259 258 258 258 259 258 259 259 258 258 257 257 257 257 258 259 259 259 260 261 262 262 263 263 263 263 263 263 264 264 265 265 266 267 267 267
254 255 257 258 258 258 260 261 259 260 259 260 260 260 260 259 259 259 259 259 259 260 259 259 260 262 262 263 263 263 263 264 264 264 264 264 265 265 266 266 266 266 266
254 255 257 258 258 259 260 261 260 260 261 262 262 261 260 260 260 260 260 261 262 262 261 260 261 262 262 264 264 264 264 265 265 265 265 265 265 265 266 265 265 265 266
253 255 257 257 258 259 260 260 261 261 262 262 262 261 261 261 262 261 261 262 263 263 263 261 261 262 263 264 264 264 265 266 266 266 267 267 266 266 266 265 265 264 265
253 255 256 257 258 258 260 261 261 261 263 263 262 262 262 262 263 262 263 263 263 264 264 262 263 263 264 264 264 265 265 266 266 267 267 267 267 267 266 266 265 265 265
252 254 255 257 258 259 260 261 261 262 263 264 263 263 264 264 264 264 264 264 264 265 264 263 263 264 265 265 265 266 266 267 267 267 268 268 268 268 267 267 266 266 265
252 253 255 257 258 259 260 261 261 263 265 265 264 264 264 265 265 266 266 266 265 265 264 264 265 265 265 265 266 266 267 267 268 268 267 268 268 268 269 269 268 267 267
254 254 256 257 259 260 260 260 261 263 264 265 265 265 266 266 266 267 266 266 266 266 266 266 266 266 266 266 266 267 268 268 269 268 268 267 268 269 269 269 269 268 267
255 256 257 257 258 259 260 261 261 262 263 265 266 267 267 268 268 268 267 267 267 267 267 267 267 266 267 267 268 268 269 269 269 268 268 268 269 268 268 269 269 268 267
255 256 256 257 258 259 261 262 263 263 264 265 266 267 268 269 270 271 269 269 268 268 268 268 267 267 267 268 269 270 270 270 270 269 269 268 268 268 268 269 269 268 267
255 256 257 257 258 260 261 263 264 264 265 266 267 267 269 269 269 270 270 269 267 268 268 268 268 267 268 269 270 270 271 271 270 269 268 267 267 267 268 268 268 268 268
256 256 257 258 259 260 261 263 264 265 266 267 267 268 269 270 270 269 269 268 267 268 270 270 271 271 270 270 270 270 271 271 270 269 269 268 268 269 269 270 269 268 269
257 257 257 259 260 261 262 263 266 266 266 267 267 268 268 268 268 269 268 267 268 269 270 270 271 271 272 272 272 271 271 272 272 271 270 270 270 270 270 270 270 270 270